DW9936 Weather Reports


time (UTC)temp
C
wind
direction
speed
KPH
gust
KPH
rain 1hr
cm
rain 24hr
cm
rain mn
cm
humidity
%
barometer
mb
20260509213010 11 108 0.0 0.0 0.00 0.00 0.00 69 1018.9
20260509211509 11 108 0.0 0.0 0.00 0.00 0.00 68 1018.8
20260509210008 12 108 0.0 0.0 0.00 0.00 0.00 67 1018.8
20260509204508 12 107 0.0 0.0 0.00 0.00 0.00 66 1018.7
20260509203008 13 107 0.0 0.0 0.00 0.00 0.00 65 1018.6
20260509201509 13 107 0.0 0.0 0.00 0.00 0.00 63 1018.5
20260509200006 14 107 0.0 0.0 0.00 0.00 0.00 61 1018.2
20260509194509 15 108 0.0 0.0 0.00 0.00 0.00 60 1018.1
20260509193006 15 111 0.0 3.2 0.00 0.00 0.00 59 1017.9
20260509191506 15 107 0.0 3.2 0.00 0.00 0.00 58 1017.8
20260509190007 16 68 0.0 3.2 0.00 0.00 0.00 58 1017.5
20260509184513 16 76 0.0 0.0 0.00 0.00 0.00 56 1017.3
20260509183005 17 76 0.0 0.0 0.00 0.00 0.00 54 1016.9
20260509181504 18 78 0.0 1.6 0.00 0.00 0.00 52 1016.8
20260509180003 18 155 0.0 4.8 0.00 0.00 0.00 51 1016.8
20260509174503 19 134 0.0 4.8 0.00 0.00 0.00 49 1016.8
20260509173002 19 103 0.0 4.8 0.00 0.00 0.00 48 1016.7
20260509171501 19 78 0.0 1.6 0.00 0.00 0.00 48 1016.7
20260509170002 20 76 0.0 11.3 0.00 0.00 0.00 47 1016.7
20260509164502 20 131 0.0 8.0 0.00 0.00 0.00 46 1016.5
20260509163106 20 96 0.0 8.0 0.00 0.00 0.00 46 1016.4
20260509161600 20 101 0.0 3.2 0.00 0.00 0.00 45 1016.5
20260509160058 20 114 1.6 6.4 0.00 0.00 0.00 45 1016.7
20260509154608 21 132 0.0 6.4 0.00 0.00 0.00 44 1016.7
20260509153058 21 67 1.6 6.4 0.00 0.00 0.00 43 1016.7
20260509151556 21 243 1.6 8.0 0.00 0.00 0.00 42 1016.8
20260509150108 21 106 0.0 4.8 0.00 0.00 0.00 44 1016.9
20260509144600 20 240 0.0 4.8 0.00 0.00 0.00 46 1016.9
20260509143056 20 172 0.0 9.7 0.00 0.00 0.00 45 1017.0
20260509141553 20 108 1.6 9.7 0.00 0.00 0.00 45 1016.9
20260509140058 20 113 0.0 6.4 0.00 0.00 0.00 44 1017.0
20260509134552 20 67 0.0 8.0 0.00 0.00 0.00 46 1017.1
20260509133059 20 188 0.0 9.7 0.00 0.00 0.00 45 1017.0
20260509131549 20 114 0.0 6.4 0.00 0.00 0.00 45 1017.2
20260509130054 21 125 1.6 6.4 0.00 0.00 0.00 44 1017.2
20260509124554 21 74 1.6 6.4 0.00 0.00 0.00 44 1017.2
20260509123050 21 350 0.0 9.7 0.00 0.00 0.00 43 1017.3
20260509121556 21 159 0.0 11.3 0.00 0.00 0.00 45 1017.4
20260509120044 21 88 1.6 9.7 0.00 0.00 0.00 45 1017.5
20260509114555 21 234 0.0 9.7 0.00 0.00 0.00 46 1017.7
20260509113039 21 68 0.0 6.4 0.00 0.00 0.00 49 1017.8
20260509111536 20 51 0.0 4.8 0.00 0.00 0.00 50 1018.1
20260509110134 21 321 0.0 6.4 0.00 0.00 0.00 48 1018.3
20260509104530 20 89 0.0 6.4 0.00 0.00 0.00 49 1018.5
20260509103028 20 143 1.6 4.8 0.00 0.00 0.00 48 1018.6
20260509101525 19 118 3.2 11.3 0.00 0.00 0.00 51 1018.8
20260509100021 19 173 0.0 9.7 0.00 0.00 0.00 52 1018.9
20260509094523 18 138 1.6 11.3 0.00 0.00 0.00 53 1018.9
20260509093016 18 138 1.6 9.7 0.00 0.00 0.00 52 1019.0
20260509091513 17 232 0.0 8.0 0.00 0.00 0.00 53 1019.1
20260509090026 17 170 3.2 8.0 0.00 0.00 0.00 56 1019.1
20260509084507 17 96 0.0 4.8 0.00 0.00 0.00 58 1019.2
20260509083009 17 96 1.6 4.8 0.00 0.00 0.00 59 1019.3
20260509081502 16 90 0.0 8.0 0.00 0.00 0.00 61 1019.4
20260509080111 16 59 0.0 4.8 0.00 0.00 0.00 61 1019.4
20260509074555 16 104 0.0 4.8 0.00 0.00 0.00 62 1019.6
20260509073105 15 156 0.0 4.8 0.00 0.00 0.00 64 1019.7
20260509071549 15 78 0.0 6.4 0.00 0.00 0.00 66 1019.8
20260509070049 15 148 0.0 4.8 0.00 0.00 0.00 69 1019.8
20260509064541 14 28 0.0 0.0 0.00 0.00 0.00 69 1019.8
20260509063041 14 90 0.0 3.2 0.00 0.00 0.00 71 1019.7
20260509061535 13 270 0.0 4.8 0.00 0.00 0.00 71 1019.7
20260509060032 13 289 0.0 4.8 0.00 0.00 0.00 74 1019.6
20260509054529 12 258 0.0 4.8 0.00 0.00 0.00 76 1019.5
20260509053038 11 309 0.0 3.2 0.00 0.00 0.00 80 1019.5
20260509051524 11 346 0.0 3.2 0.00 0.00 0.00 82 1019.3
20260509050041 10 9 0.0 1.6 0.00 0.00 0.00 85 1019.1
20260509044518 9 13 0.0 1.6 0.00 0.00 0.00 87 1019.0
20260509043030 8 13 0.0 0.0 0.00 0.00 0.00 87 1018.9
20260509041514 8 13 0.0 0.0 0.00 0.00 0.00 87 1018.8
20260509040011 8 13 0.0 0.0 0.00 0.00 0.00 86 1018.8
20260509034509 8 13 0.0 1.6 0.00 0.00 0.00 86 1018.8
20260509033008 8 13 0.0 0.0 0.00 0.00 0.00 85 1018.8
20260509031507 8 13 0.0 0.0 0.00 0.00 0.00 85 1018.9
20260509030017 9 13 0.0 0.0 0.00 0.00 0.00 86 1018.8
20260509024505 8 13 0.0 0.0 0.00 0.00 0.00 86 1018.9
20260509023005 8 13 0.0 0.0 0.00 0.00 0.00 85 1018.8
20260509021503 9 13 0.0 0.0 0.00 0.00 0.00 84 1018.8
20260509020001 9 13 0.0 0.0 0.00 0.00 0.00 83 1018.8
20260509014558 10 13 0.0 0.0 0.00 0.00 0.00 83 1018.7
20260509013105 10 13 0.0 0.0 0.00 0.00 0.00 82 1018.7
20260509011603 10 13 0.0 0.0 0.00 0.00 0.00 82 1018.7
20260509010057 10 13 0.0 0.0 0.00 0.00 0.00 81 1018.7
20260509004559 11 13 0.0 0.0 0.00 0.00 0.00 81 1018.6
20260509003051 11 13 0.0 0.0 0.00 0.00 0.00 81 1018.6
20260509001553 11 14 0.0 1.6 0.00 0.00 0.00 80 1018.7
20260509000050 11 36 0.0 0.0 0.00 0.00 0.00 80 1018.7
20260508234548 11 46 0.0 1.6 0.00 0.00 0.00 80 1018.7
20260508233048 11 69 0.0 0.0 0.00 0.00 0.00 80 1018.7
20260508231552 11 69 0.0 0.0 0.00 0.00 0.00 79 1018.8
20260508230040 12 69 0.0 0.0 0.00 0.00 0.00 77 1018.7
20260508224559 12 69 0.0 0.0 0.00 0.00 0.00 76 1018.7
20260508223035 12 69 0.0 0.0 0.00 0.00 0.00 74 1018.7
20260508221539 13 69 0.0 1.6 0.00 0.00 0.00 74 1018.6
20260508220033 13 65 0.0 0.0 0.00 0.00 0.00 72 1018.5
20260508214537 14 66 0.0 1.6 0.00 0.00 0.00 71 1018.4